Regional Weather Roundup
Issued by NWS

Home | Current Version | Previous Version | Graphics & Text | Print | Product List | Glossary On
Versions: 1 2 3 4 5 6 7 8 9 10 11 12 13 14 15 16 17 18 19 20 21 22 23 24 25 26 27 28 29 30 31 32 33 34 35 36 37 38 39 40 41 42 43 44 45 46 47 48 49 50
000
ASUS43 KDMX 170906
RWRIA

WEATHER ROUNDUP FOR IOWA
NATIONAL WEATHER SERVICE DES MOINES IA
300 AM CST FRI NOV 17 2017

NOTE: "FAIR" INDICATES FEW OR NO CLOUDS BELOW 12,000 FEET WITH NO
SIGNIFICANT WEATHER AND/OR OBSTRUCTIONS TO VISIBILITY.

* - THESE STATIONS ARE NOT NWS STATIONS...THUS NOT UNDER NWS
QUALITY CONTROL.  THEY ALSO DO NOT REPORT WEATHER SUCH
AS PRECIPITATION OR FOG.

IAZ001>003-012>014-020>022-031>034-043>046-171000-
   NORTHWEST IOWA

CITY           SKY/WX    TMP DP  RH WIND       PRES   REMARKS
CARROLL *      CLOUDY    43  32  65 SE16      29.79F
CHEROKEE *     CLOUDY    41  32  70 S14       29.73F
DENISON *      CLOUDY    43  32  65 S13G20    29.77S
LE MARS *      CLOUDY    45  32  61 S22G28    29.67F
ORANGE CITY *  CLOUDY    43  34  70 S13       29.67F
SHELDON *      CLOUDY    41  30  65 S21G28    29.66F
SIOUX CITY     MOCLDY    41  31  67 SE15      29.69F
SPENCER        CLOUDY    36  29  75 SE18      29.74F WCI  26
STORM LAKE *   CLOUDY    39  30  70 S17G24    29.75F WCI  30
$$

IAZ055>058-069>071-079>083-090>094-171000-
   SOUTHWEST IOWA

CITY           SKY/WX    TMP DP  RH WIND       PRES   REMARKS
ATLANTIC *     CLOUDY    46  32  57 S14G20    29.80F
AUDUBON *      MOCLDY    45  34  65 S10G17    29.80F
CLARINDA *       N/A     48  34  57 S9          N/A
COUNCIL BLFS * CLOUDY    45  34  65 S16G22    29.75F
CRESTON *      MOCLDY    41  30  65 SE16      29.86F
HARLAN  *      CLOUDY    45  32  61 S15       29.80F
LAMONI         CLOUDY    41  30  65 SE13G18   29.88F
RED OAK *      CLOUDY    46  34  61 S12       29.80F
SHENANDOAH *   CLOUDY    48  34  57 SE16      29.80F
$$

IAZ047>049-059>061-072>074-084-171000-
   CENTRAL IOWA

CITY           SKY/WX    TMP DP  RH WIND       PRES   REMARKS
AMES           CLOUDY    36  32  85 SE12      29.89F WCI  28
ANKENY *       CLOUDY    37  30  75 SE13      29.90F WCI  29
BOONE *        CLOUDY    36  30  80 SE20      29.85F WCI  25
CHARITON *     CLOUDY    39  30  70 SE16G22   29.90F WCI  30
DES MOINES     CLOUDY    41  29  62 SE14      29.89F
GRINNELL*      CLOUDY    33  31  90 SE15      29.95F WCI  23
KNOXVILLE *    CLOUDY    37  30  75 SE13      29.90F WCI  29
MARSHALLTOWN   CLOUDY    34  31  88 SE15      29.93F WCI  24
NEWTON *       CLOUDY    34  32  93 SE14G20   29.93F WCI  24
PELLA *        MOCLDY    37  31  79 SE14G22   29.94F WCI  28
PERRY *        CLOUDY    39  31  72 SE15      29.84F WCI  31
$$

IAZ004>006-015-016-023>025-035-036-171000-
   NORTH CENTRAL IOWA

CITY           SKY/WX    TMP DP  RH WIND       PRES   REMARKS
ALGONA *       CLOUDY    36  32  87 SE18G26   29.81F WCI  25
CLARION *      CLOUDY    34  34 100 SE21G29   29.85F WCI  22
ESTHERVILLE    CLOUDY    32  30  92 SE22      29.74F WCI  19
FORT DODGE *   CLOUDY    37  29  72 SE16G22   29.83F WCI  28
MASON CITY     CLOUDY    32  28  85 SE21G30   29.90F WCI  20
FOREST CITY *  CLOUDY    34  32  93 SE18G25   29.86F WCI  23
WEBSTER CITY * CLOUDY    36  30  80 SE17G24   29.84F WCI  25
IOWA FALLS *   CLOUDY    34  31  89 SE13G18   29.92F WCI  25
$$

IAZ007>011-017>019-026>030-037>042-050>054-066-171000-
   NORTHEAST IOWA

CITY           SKY/WX    TMP DP  RH WIND       PRES   REMARKS
CEDAR RAPIDS   CLOUDY    33  30  88 SE16G25   30.02F WCI  23
CHARLES CITY * CLOUDY    32  32 100 SE21      29.94F WCI  20
CLINTON *      MIX PCPN  32  29  88 S14       30.10F WCI  22
DECORAH *      CLOUDY    32  30  93 SE15G24   29.98F WCI  22
DUBUQUE        CLOUDY    32  29  88 SE14      30.07F WCI  22
MONTICELLO *   CLOUDY    32  30  93 SE10G18   30.05F WCI  24
OELWEIN *      CLOUDY    32  32 100 SE20G26   29.99F WCI  20
WATERLOO       CLOUDY    33  29  85 SE21G26   29.96F WCI  21
$$

IAZ064-065-067-068-078-171000-
   EAST CENTRAL IOWA

CITY           SKY/WX    TMP DP  RH WIND       PRES   REMARKS
DAVENPORT      CLOUDY    32  29  88 SE15G21   30.10F FOG     WCI  22
IOWA CITY      CLOUDY    34  30  85 SE17      30.05F WCI  23
MT. PLEASANT * CLOUDY    33  32  96 SE18G24   30.04F WCI  22
MUSCATINE *    CLOUDY    34  30  86 SE12G21   30.07F WCI  25
QUAD CITIES    CLOUDY    34  29  82 SE15G22   30.10F WCI  24
$$

IAZ062-063-075>077-085>089-095>099-171000-
   SOUTHEAST IOWA

CITY           SKY/WX    TMP DP  RH WIND       PRES   REMARKS
BURLINGTON     CLOUDY    32  31  96 SE12      30.06F WCI  23
FAIRFIELD *    CLOUDY    34  30  86 SE17G26   29.99F WCI  23
FORT MADISON * CLOUDY    34  32  93 SE16G22   30.04F WCI  23
KEOKUK *       CLOUDY    34  32  93 SE12G22   30.04F WCI  25
OSKALOOSA *    CLOUDY    34  32  90 SE15      29.96F WCI  24
OTTUMWA        CLOUDY    37  31  78 SE17G24   29.96F WCI  27
WASHINGTON *   CLOUDY    34  32  93 SE17      30.03F WCI  23
$$

ABBREVIATIONS USED IN REMARKS
   TC - TEMPERATURES IN CELSIUS
  WCI - WIND CHILL INDEX
   HX - HEAT INDEX
  VSB - VISIBILITY
$$




USA.gov is the U.S. government's official web portal to all federal, state and local government web resources and services.